Flag for Austria Weather past 2 weeks in Hartberg, Styria, Austria

Now
55 °F

Light rain. Partly sunny.


Feels Like: 55 °F
Forecast: 50 / 56 °F
Wind: 2 mph from North

Location: Graz-Thalerhof-Flughafen

Current Time: May 22, 2015 at 12:51:14 PM

Latest Report: May 22, 2015 at 11:50 AM


Visibility: N/A

Pressure: 30.12 "Hg

Humidity: 77%

Dew point: 48 °F

Location of HartbergLocation

Historic Weather in Hartberg — Graph

°F

Hartberg temperature yesterday

Maximum temperature yesterday: 61 °F (at 2:20 PM)
Minimum temperature yesterday: 48 °F (at 12:20 AM)
Average temperature yesterday: 53 °F

Past Weeks' High & Low Weather Summary

 TemperatureHumidityPressure
High79 °F (May 13, 1:20 PM)100% (May 9, 10:50 PM)30.36 "Hg (May 9, 10:50 PM)
Low41 °F (May 12, 5:20 AM)29% (May 10, 3:50 PM)29.74 "Hg (May 19, 1:20 PM)
Average60 °F70%30.04 "Hg
* Reported May 7 11:20 AM — May 22 11:20 AM, Hartberg, Weather by CustomWeather, © 2015

Note: Actual official high and low records may vary slightly from our data, if they occured in-between our weather recording intervals... More about our weather records

Advertising

Hartberg weather history for previous 24 hours

 ConditionsComfort  
Time TempWeatherWind HumidityBarometerVisibility
11:20 AM
Fri, May 22
57 °FLight rain. Partly sunny.1 mph67%30.09 "HgN/A
10:50 AM57 °FMore clouds than sun.6 mph63%30.09 "HgN/A
10:20 AM57 °FMore clouds than sun.7 mph63%30.09 "HgN/A
9:50 AM55 °FOvercast.6 mph72%30.09 "HgN/A
9:20 AM55 °FLight rain. Overcast.5 mph77%30.09 "HgN/A
8:50 AM54 °FLight rain. Overcast.1 mph88%30.12 "HgN/A
8:20 AM54 °FLight rain. Overcast.1 mph77%30.12 "HgN/A
7:50 AM54 °FPartly sunny.2 mph82%30.12 "HgN/A
7:20 AM52 °FPartly sunny.1 mph88%30.12 "HgN/A
6:50 AM52 °FBroken clouds.3 mph88%30.12 "HgN/A
6:20 AM52 °FBroken clouds.1 mph82%30.09 "HgN/A
5:50 AM50 °FPartly cloudy.1 mph88%30.09 "HgN/A
5:20 AM50 °FPartly cloudy.2 mph88%30.09 "HgN/A
4:50 AM52 °FPassing clouds.3 mph67%30.09 "HgN/A
4:20 AM52 °FClear.5 mph67%30.09 "Hg10 mi
3:50 AM52 °FClear.7 mph67%30.12 "Hg10 mi
3:20 AM54 °FClear.8 mph63%30.12 "Hg10 mi
2:50 AM55 °FClear.9 mph59%30.12 "Hg10 mi
2:20 AM55 °FClear.9 mph59%30.12 "Hg10 mi
1:50 AM55 °FClear.10 mph59%30.12 "Hg10 mi
1:20 AM55 °FClear.14 mph59%30.12 "Hg10 mi
12:50 AM55 °FSprinkles. Partly cloudy.8 mph59%30.12 "HgN/A
12:20 AM55 °FPassing clouds.8 mph59%30.12 "HgN/A
11:50 PM
Thu, May 21
55 °FSprinkles. Overcast.9 mph59%30.12 "HgN/A
11:20 PM55 °FPassing clouds.10 mph59%30.12 "HgN/A
10:50 PM55 °FLight rain. Partly cloudy.7 mph63%30.12 "HgN/A
10:20 PM55 °FPartly cloudy.7 mph59%30.12 "HgN/A
9:50 PM55 °FPartly cloudy.7 mph59%30.12 "HgN/A
9:20 PM55 °FBroken clouds.8 mph59%30.12 "HgN/A
8:50 PM55 °FBroken clouds.7 mph63%30.09 "HgN/A
8:20 PM55 °FBroken clouds.3 mph82%30.09 "HgN/A
7:50 PM55 °FPartly sunny.3 mph77%30.09 "HgN/A
7:20 PM55 °FPartly sunny.3 mph77%30.09 "HgN/A
6:50 PM55 °FBroken clouds.2 mph77%30.09 "HgN/A
6:20 PM55 °FBroken clouds.3 mph77%30.09 "HgN/A
5:50 PM55 °FBroken clouds.3 mph77%30.07 "HgN/A
5:20 PM55 °FPartly sunny.7 mph77%30.07 "HgN/A
4:50 PM57 °FPartly sunny.8 mph77%30.07 "HgN/A
4:20 PM57 °FPartly sunny.7 mph72%30.07 "HgN/A
3:50 PM61 °FBroken clouds.6 mph55%30.07 "HgN/A
3:20 PM61 °FBroken clouds.6 mph55%30.07 "HgN/A
2:50 PM61 °FPartly sunny.8 mph55%30.07 "HgN/A
2:20 PM61 °FBroken clouds.9 mph59%30.04 "HgN/A
1:50 PM59 °FBroken clouds.8 mph59%30.07 "HgN/A
1:20 PM57 °FBroken clouds.6 mph63%30.07 "HgN/A
12:50 PM57 °FBroken clouds.10 mph59%30.07 "HgN/A
12:20 PM57 °FBroken clouds.12 mph59%30.07 "HgN/A
Weather by CustomWeather, © 2015

See weather overviewHow to use our weather pages